www.pogodaiklimat.ru

Погода и климат >> Архив погоды >> Индия >> Pune


ПОГОДА в Pune

  • Прогноз погоды в Pune
  • Монитор погоды в Pune
  • Климат города

АРХИВ ПОГОДЫ в Pune

Время (UTC), дата Ветер
(напр.,м/с)
 
Видим.   Явления Облачность Т
(С)
Тd
(С)
f
(%)
Тe
(С)
Тes
(С)
Комфортность P
(гПа)
Po
(гПа)
Тmin
(С)
Tmax
(С)
R
(мм)
R24
(мм)
S
(см)
09 14.10 З 1 10 км гроза без осадков {ливн. осадки} 9/8 800 м
[Cb cap Ac trans]
+24.6 +23.7 95 +33 +36 очень
душно
1004.4 942.9 15
12 14.10 штиль 0 4000 м гроза, ливневой дождь 9/8 800 м
[Cb cap Ac trans]
+24.0 +23.4 96 +32 +32 очень
душно
1004.6 942.9 +29.6 19
15 14.10 штиль 0 4000 м {гроза, дождь} 9/6 800 м
[Cu Sc Ac trans]
+24.2 +23.3 95 +32 +32 очень
душно
1006.6 944.9 20
18 14.10 штиль 0 4000 м {гроза, дождь} 8/5 800 м
[Sc Ac trans]
+32.3 +22.6 57 +42 +42 опасность
перегрева
1006.9 945.0 20
21 14.10 штиль 0 4000 м 8/5 800 м
[Sc Ac trans]
+23.0 +22.4 96 +31 +31 очень
душно
1006.0 943.9 20
00 15.10 штиль 0 4000 м 6/4 800 м
[Sc Ac trans]
+22.8 +22.5 98 +31 +31 очень
душно
1006.4 944.3 20
03 15.10 штиль 0 4000 м мгла {туман} 8/3 800 м
[Sc Ac trans Ci fib]
+24.8 +23.9 95 +34 +36 очень
душно
1008.4 946.6 +21.9 20
06 15.10 штиль 0 10 км {туман} 8/3 800 м
[Sc Ac trans Ci fib]
+28.4 +23.9 77 +39 +49 очень
душно
1007.8 946.9
09 15.10 В 2 4000 м дождь 9/8 800 м
[Cu Sc Ac trans]
+26.6 +23.1 81 +36 +38 очень
душно
1005.1 943.9 4
12 15.10 ЮВ 1 4000 м {гроза, дождь} 9/8 800 м
[Cb cap Ac trans]
+25.1 +23.7 92 +34 +34 очень
душно
1004.0 944.6 +31.3 4
15 15.10 штиль 0 4000 м 5/3 800 м
[Sc Ac trans]
+23.3 +22.5 95 +32 +32 очень
душно
1007.9 945.9 4
18 15.10 штиль 0 4000 м 9/5 800 м
[Sc Ac trans]
+23.2 +22.6 96 +32 +32 очень
душно
1009.4 947.3 4
21 15.10 штиль 0 4000 м 9/4 800 м
[Sc Ac trans]
+22.6 +22.2 98 +19 +19 1008.0 945.8 4
00 16.10 штиль 0 4000 м 9/4 800 м
[Sc Ac trans Ci fib]
+22.4 +22.1 98 +30 +30 очень
душно
1008.0 945.8 4
03 16.10 штиль 0 4000 м мгла {туман} 8/3 800 м
[Sc Ac trans Ci fib]
+24.6 +23.2 92 +33 +35 очень
душно
1009.4 947.5 +21.6 4
06 16.10 В 2 10 км {туман} 9/5 800 м
[Cu Sc Ac trans Ci fib]
+29.9 +23.3 68 +40 +45 очень
душно
1008.2 947.3
12 16.10 штиль 0 10 км 1/1 800 м
[Sc]
+30.8 +25.3 73 +45 +46 опасность
перегрева
1004.6 944.2 +32.1
15 16.10 штиль 0 4000 м 8/4 800 м
[Cu Sc Ac trans Ci fib]
+25.9 +23.6 87 +35 +35 очень
душно
1008.2 946.6
18 16.10 штиль 0 4000 м 5/3 800 м
[Sc Ac trans]
+24.6 +23.5 94 +33 +33 очень
душно
1009.0 947.1
21 16.10 В 1 4000 м 8/4 800 м
[Sc Ac trans]
+24.2 +23.0 93 +32 +32 очень
душно
1007.6 945.8
00 17.10 штиль 0 4000 м мгла 5/1 800 м
[Sc Ac trans Ci fib]
+22.8 +22.2 96 +31 +31 очень
душно
1008.1 945.9
03 17.10 штиль 0 4000 м 4/0 600 м
[Ci fib]
+25.0 +23.0 89 +33 +37 очень
душно
1009.9 948.0 +21.7
06 17.10 В 1 4000 м 6/0
[Ci fib]
+30.2 +21.3 59 +38 +54 опасность
солнечного
удара
1008.2 947.6
09 17.10 В 1 10 км 6/3 800 м
[Cu Sc Ci fib]
+32.2 +20.7 51 +33 +43 жарко 1005.3 945.2
12 17.10 штиль 0 10 км 5/1 800 м
[Sc Ac trans Ci fib]
+28.8 +20.6 61 +36 +36 очень
душно
1005.5 944.7 +32.6
15 17.10 штиль 0 4000 м 1/1 800 м
[Sc]
+23.0 +20.6 86 +30 +30 очень
душно
1009.3 947.0
18 17.10 штиль 0 4000 м ясно +22.0 +19.3 85 +27 +27 душно 1010.0 947.5
21 17.10 штиль 0 4000 м ясно +20.8 +19.3 91 +25 +25 комфорт 1008.6 946.0
00 18.10 штиль 0 4000 м ясно +19.0 +18.4 96 +21 +21 комфорт 1008.7 945.8
03 18.10 штиль 0 4000 м 4/0
[Ci fib]
+23.6 +20.3 82 +29 +33 душно 1010.0 947.9 +18.2
06 18.10 штиль 0 10 км 6/0
[Ci fib]
+28.8 +18.6 54 +34 +52 опасность
солнечного
удара
1009.0 947.9
09 18.10 В 1 10 км 8/4 800 м
[Cu Sc Ci fib]
+31.6 +13.3 33 +33 +41 жарко 1005.6 945.3
12 18.10 штиль 0 10 км 8/0 1500 м
[Ac trans Ci fib]
+30.6 +16.1 42 +34 +34 очень
душно
1005.1 944.7 +32.7
15 18.10 штиль 0 4000 м 3/0
[Ci fib]
+24.0 +19.8 77 +29 +29 душно 1009.1 947.0
18 18.10 штиль 0 4000 м 3/0
[Ci fib]
+22.0 +20.2 90 +28 +28 душно 1009.2 946.8
00 19.10 штиль 0 4000 м ясно +19.0 +18.1 95 +21 +21 комфорт 1008.5 945.4
03 19.10 штиль 0 10 км 5/0
[Ci fib]
+23.8 +19.3 76 +29 +33 душно 1009.6 947.5 +17.8
06 19.10 штиль 0 10 км 5/0
[Ci fib]
+30.0 +15.3 41 +33 +51 опасность
солнечного
удара
1007.6 946.9
09 19.10 В 2 10 км 6/0
[Ci fib]
+32.2 +11.7 29 +32 +44 жарко 1004.2 944.2
12 19.10 штиль 0 10 км 6/0
[Ci fib]
+29.2 +19.1 55 +35 +36 очень
душно
1004.4 943.8 +32.6
15 19.10 штиль 0 4000 м 6/0
[Ci fib]
+20.2 +17.0 82 +23 +23 комфорт 1008.1 946.1
18 19.10 штиль 0 2000 м дым 4/0
[Ci fib]
+19.2 +17.9 92 +21 +21 комфорт 1009.7 946.8
21 19.10 штиль 0 4000 м 5/0
[Ci fib]
+18.6 +18.0 96 +20 +20 1008.7 945.6
00 20.10 штиль 0 4000 м 4/0
[Ci fib]
+17.8 +17.2 96 +18 +18 1008.8 945.5
03 20.10 штиль 0 4000 м мгла {туман} 5/0
[Ci fib]
+20.2 +19.0 93 +24 +27 комфорт 1010.0 947.2 +16.8
06 20.10 З 2 10 км {туман} 8/0
[Ci fib]
+28.4 +15.3 45 +31 +45 душно 1007.6 946.7
09 20.10 З 1 10 км 5/1 800 м
[Sc Ci fib]
+31.8 +15.1 36 +34 +46 душно 1004.6 944.4
12 20.10 З 2 10 км 8/1 800 м
[Sc Ac trans Ci fib]
+28.2 +18.1 54 +33 +33 очень
душно
1005.5 944.7 +32.3
15 20.10 З 1 4000 м 5/1 800 м
[Sc Ci fib]
+23.9 +20.7 82 +30 +30 очень
душно
1008.9 946.9
18 20.10 З 1 4000 м 4/0
[Ci fib]
+23.2 +21.4 90 +31 +31 очень
душно
1009.8 947.7
21 20.10 З 1 4000 м 8/5 800 м
[Sc Ac trans]
+22.3 +20.7 91 +29 +29 очень
душно
1008.1 945.9
00 21.10 штиль 0 4000 м 8/4 800 м
[Sc Ac trans]
+23.7 +19.9 79 +29 +29 душно 1008.0 946.0
03 21.10 штиль 0 4000 м 9/1 800 м
[Sc Ac trans]
+24.4 +21.5 84 +31 +33 очень
душно
1009.9 948.0 +21.6

 

Местоположение метеостанции Pune (Maharashtra, Индия): широта 18.53 долгота 73.85 высота над уровнем моря 559 м.

В архиве по умолчанию представлена погода в Pune за последнюю неделю. Архивные данные за месяц целиком и за предыдущие месяцы, начиная с января 2011 года, Вы можете получить, выбрав интересующий диапазон дат из раскрывающегося списка и нажав кнопку "Ввод!".

Внимание! Время в таблицах - всемирное. Для получения местного времени необходимо прибавить поправку, которая в Pune равна 5.5 ч.

Смотрите также архив погоды в соседних городах и на ближайших метеорологических станциях:

Погода в Bhira (Maharashtra, Индия) (48 км)
Погода в Mahabaleshwar (Maharashtra, Индия) (69 км)
Погода в Alibag (Maharashtra, Индия) (104 км)
Погода в Harnai (Maharashtra, Индия) (112 км)
Погода в Satara (Maharashtra, Индия) (114 км)
Погода в Mumbai Colaba (Maharashtra, Индия) (116 км)
Погода в Ahmednagar (Maharashtra, Индия) (117 км)
Погода в Mumbai (Maharashtra, Индия) (124 км)
Погода в Jeur (Maharashtra, Индия) (141 км)
Погода в Nashik (Maharashtra, Индия) (164 км)

Пояснения к столбцам:

Ветер - указаны скорость ветра в м/с - средняя за 10 мин, порывы в срок и между сроками (в фигурных скобках) и направление, откуда дует ветер: С - северный, СВ - северо-восточный, В - восточный, ЮВ - юго-восточный, Ю - южный, ЮЗ - юго-западный, З - западный, СЗ - северо-западный.
Видимость - горизонтальная дальность видимости в метрах или километрах. При видимости от 1 до 10 км при отсутствии осадков обычно наблюдается дымка, при ухудшении видимости до 1 км и менее - туман. В сухую погоду видимость может ухудшаться дымом, пылью или мглою.
Явления - указаны атмосферные явления, наблюдавшиеся в срок или в последний час перед сроком; фигурными скобками обозначены явления, наблюдавшиеся между сроками (за 1-3 часа до срока); квадратными скобками обозначены град или гололедные отложения с указанием их диаметра в мм.
Облачность - указаны через наклонную черту общая и нижняя облачность в баллах и высота нижней границы облаков в метрах; квадратными скобками обозначены формы облаков: Ci - перистые, Cs - перисто-слоистые, Cc - перисто-кучевые, Ac - высококучевые, As - высокослоистые, Sc - слоисто-кучевые, Ns - слоисто-дождевые, Cu - кучевые, Cb - кучево-дождевые. Подробнее классификацию облаков см. в Атласе облаков (PDF).
T - Температура воздуха - температура, измеренная на высоте 2 м над землей.
Td - Температура точки росы - температура, при понижении до которой содержащийся в воздухе водяной пар достигнет насыщения.
f - Относительная влажность воздуха - влажноcть воздуха, измеренная на высоте 2 м над землей.
Te - Эффективная температура - температура, которую ощущает одетый по сезону человек в тени. Характеристика душности погоды. При расчете учитывается влияние влажности воздуха и скорости ветра на теплоощущения человека.
Tes - Эффективная температура на солнце - температура, которую ощущает человек, с поправкой на солнечный нагрев. Характеристика знойности погоды. Зависит от высоты солнца над горизонтом, облачности и скорости ветра. Ночью, в пасмурную погоду, а также при ветре 12 м/с и более поправка равна нулю.
P - Атмосферное давление - приведенное к уровню моря атмосферное давление.
Po - Атмосферное давление - измеренное на уровне метеостанции атмосферное давление.
Tmin - Минимальная температура - минимум температуры воздуха на высоте 2 м над землей.
Tmax - Максимальная температура - максимум температуры воздуха на высоте 2 м над землей.
R - Количество осадков - Количество выпавших осадков за период времени, мм. При наведении курсора мыши на число - период времени, за который выпало указанное количество осадков.
R24 - Количество осадков - Количество выпавших осадков за 24 часа, мм.
S - Снежный покров - Высота снежного покрова, см. При наведении курсора мыши на число - состояние снежного покрова и степень покрытия местности в баллах.